EW7070 Weather Reports


time (UTC)temp
C
wind
direction
speed
KPH
gust
KPH
rain 1hr
cm
rain 24hr
cm
rain mn
cm
humidity
%
barometer
mb
20260508190208 21 324 8.0 22.5 0.00 0.97 0.76 47 1007.1
20260508185924 21 327 8.0 20.9 0.00 0.97 0.76 47 1007.0
20260508185423 21 332 9.7 22.5 0.00 0.97 0.76 47 1007.0
20260508184654 21 356 9.7 22.5 0.00 0.97 0.76 47 1006.9
20260508184410 21 11 11.3 32.2 0.00 0.97 0.76 47 1006.9
20260508184126 21 312 11.3 20.9 0.00 0.97 0.76 47 1006.9
20260508183055 21 357 12.9 22.5 0.00 0.97 0.76 46 1006.9
20260508182544 21 337 14.5 25.7 0.00 0.97 0.76 45 1006.8
20260508182044 21 312 12.9 27.4 0.00 0.97 0.76 45 1006.9
20260508181545 22 275 9.7 22.5 0.00 0.97 0.76 45 1006.8
20260508181038 22 330 11.3 29.0 0.00 0.97 0.76 46 1006.7
20260508180534 22 343 9.7 29.0 0.00 0.97 0.76 45 1006.6
20260508180032 22 16 8.0 22.5 0.00 0.97 0.76 45 1006.6
20260508175529 22 315 6.4 20.9 0.00 0.97 0.76 44 1006.6
20260508175029 22 290 8.0 20.9 0.00 0.97 0.76 45 1006.6
20260508174502 22 297 9.7 20.9 0.00 0.97 0.76 43 1006.7
20260508173955 22 297 11.3 25.7 0.00 0.97 0.76 44 1006.8
20260508173441 22 291 9.7 25.7 0.00 0.97 0.76 44 1006.8
20260508172941 22 272 9.7 25.7 0.00 0.97 0.76 46 1006.7
20260508172441 22 338 11.3 22.5 0.00 0.97 0.76 48 1006.6
20260508171914 22 1 11.3 24.1 0.00 0.97 0.76 48 1006.6
20260508171415 22 331 11.3 24.1 0.00 0.97 0.76 45 1006.6
20260508170850 22 321 11.3 24.1 0.00 0.97 0.76 47 1006.7
20260508170349 22 338 12.9 32.2 0.00 0.97 0.76 46 1006.7
20260508165845 22 348 11.3 32.2 0.00 0.97 0.76 45 1006.7
20260508165318 22 345 8.0 27.4 0.00 0.97 0.76 46 1006.8
20260508165020 22 333 8.0 20.9 0.00 0.97 0.76 49 1006.7
20260508164223 21 282 9.7 24.1 0.00 0.97 0.76 49 1006.7
20260508163656 21 348 9.7 24.1 0.00 0.97 0.76 48 1006.7
20260508163134 21 302 9.7 25.7 0.00 0.97 0.76 49 1006.8
20260508162621 21 322 11.3 25.7 0.00 0.97 0.76 48 1006.9
20260508162114 21 353 12.9 30.6 0.00 0.97 0.76 49 1006.8
20260508161550 21 348 11.3 30.6 0.00 0.97 0.76 49 1006.9
20260508161048 21 318 8.0 22.5 0.00 0.97 0.76 48 1006.8
20260508160550 21 309 9.7 24.1 0.00 0.97 0.76 48 1007.1
20260508160047 21 305 9.7 29.0 0.00 0.97 0.76 48 1007.1
20260508155548 21 285 9.7 29.0 0.00 0.97 0.76 48 1007.1
20260508155036 21 227 9.7 22.5 0.00 0.97 0.76 47 1007.3
20260508154534 20 330 8.0 22.5 0.00 0.97 0.76 47 1007.4
20260508154027 20 301 8.0 20.9 0.00 0.97 0.76 48 1007.5
20260508153524 20 283 9.7 27.4 0.00 0.97 0.76 50 1007.6
20260508152956 20 319 11.3 27.4 0.00 0.97 0.76 49 1007.7
20260508152446 20 328 8.0 27.4 0.00 0.97 0.76 49 1007.9
20260508151922 20 289 8.0 19.3 0.00 0.97 0.76 52 1007.8
20260508151355 20 337 9.7 20.9 0.00 0.97 0.76 55 1007.8
20260508151057 20 8 11.3 25.7 0.00 0.97 0.76 54 1007.8
20260508150258 20 294 11.3 25.7 0.00 0.97 0.76 52 1008.0
20260508145756 20 353 11.3 24.1 0.00 0.97 0.76 54 1008.1
20260508145225 20 331 11.3 24.1 0.00 0.97 0.76 54 1008.2
20260508144719 20 7 11.3 25.7 0.00 0.97 0.76 54 1008.4
20260508144214 20 320 9.7 25.7 0.00 0.97 0.76 52 1008.3
20260508143710 20 333 8.0 20.9 0.00 0.97 0.76 54 1008.4
20260508143204 19 354 8.0 19.3 0.00 0.97 0.76 56 1008.5
20260508142701 19 352 9.7 20.9 0.00 0.97 0.76 56 1008.7
20260508142150 19 348 11.3 35.4 0.00 0.97 0.76 55 1008.7
20260508141649 19 340 9.7 35.4 0.00 0.97 0.76 57 1008.9
20260508141415 18 8 8.0 20.9 0.00 0.97 0.76 57 1009.0
20260508140913 18 337 11.3 30.6 0.00 0.97 0.76 56 1008.8
20260508140112 18 328 12.9 30.6 0.00 0.97 0.76 57 1008.8
20260508135544 18 139 11.3 38.6 0.00 0.97 0.76 56 1008.8
20260508135251 18 44 8.0 25.7 0.00 0.97 0.76 58 1008.7
20260508134452 18 2 8.0 14.5 0.00 0.97 0.76 62 1008.8
20260508133924 18 288 9.7 25.7 0.00 0.97 0.76 62 1008.9
20260508133423 18 7 9.7 24.1 0.00 0.97 0.76 62 1008.8
20260508132918 18 300 9.7 22.5 0.00 0.97 0.76 60 1008.9
20260508132410 18 331 9.7 25.7 0.00 0.97 0.76 65 1008.7
20260508131910 18 23 11.3 25.7 0.00 0.97 0.76 63 1008.9
20260508131410 18 312 9.7 17.7 0.00 0.97 0.76 63 1008.8
20260508130910 18 339 9.7 25.7 0.00 0.97 0.76 65 1009.0
20260508130345 18 323 8.0 22.5 0.00 0.97 0.76 67 1008.9
20260508125818 18 216 8.0 22.5 0.00 0.97 0.76 69 1008.8
20260508125519 18 281 8.0 22.5 0.00 0.97 0.76 67 1008.9
20260508124723 17 278 6.4 25.7 0.00 0.97 0.76 68 1008.8
20260508124218 17 141 8.0 25.7 0.00 0.97 0.76 66 1008.7
20260508123715 17 322 9.7 24.1 0.00 0.97 0.76 70 1008.6
20260508123440 17 343 9.7 17.7 0.00 0.97 0.76 69 1008.5
20260508122913 17 277 9.7 27.4 0.00 0.97 0.76 68 1008.5
20260508122142 17 326 9.7 25.7 0.00 0.97 0.76 70 1008.3
20260508121634 17 298 8.0 19.3 0.00 0.97 0.76 71 1008.5
20260508121134 17 274 8.0 22.5 0.00 0.97 0.76 71 1008.4
20260508120634 17 345 9.7 22.5 0.00 0.97 0.76 71 1008.6
20260508120132 17 310 9.7 20.9 0.00 0.97 0.76 71 1008.6
20260508115558 16 301 11.3 20.9 0.00 0.97 0.76 71 1008.5
20260508115037 16 355 12.9 27.4 0.00 0.97 0.76 73 1008.4
20260508114507 16 330 12.9 27.4 0.00 0.97 0.76 72 1008.3
20260508113939 16 313 11.3 24.1 0.00 0.97 0.76 74 1008.5
20260508113436 16 264 8.0 22.5 0.00 0.97 0.76 76 1008.5
20260508113142 16 306 6.4 17.7 0.00 0.97 0.76 74 1008.5
20260508112407 16 318 4.8 12.9 0.00 0.97 0.76 74 1008.6
20260508111841 16 330 6.4 12.9 0.00 0.97 0.76 73 1008.7
20260508111322 16 341 8.0 20.9 0.00 0.97 0.76 74 1008.7
20260508110758 16 240 8.0 20.9 0.00 0.97 0.76 73 1008.6
20260508110228 16 321 6.4 20.9 0.00 0.97 0.76 74 1008.5
20260508105705 16 330 8.0 17.7 0.00 0.97 0.76 73 1008.5
20260508105149 16 291 8.0 20.9 0.00 0.97 0.76 74 1008.5
20260508104642 16 17 8.0 22.5 0.00 0.97 0.76 75 1008.4
20260508104128 16 305 8.0 22.5 0.00 0.97 0.76 75 1008.3
20260508103628 16 288 8.0 29.0 0.00 0.97 0.76 77 1008.3
20260508103126 16 56 9.7 29.0 0.00 0.97 0.76 77 1008.2
20260508102617 16 243 4.8 19.3 0.00 0.97 0.76 78 1008.1
20260508102113 16 204 3.2 17.7 0.00 0.97 0.76 81 1007.9
20260508101612 16 287 4.8 17.7 0.00 0.97 0.76 81 1007.9
20260508101113 16 298 9.7 20.9 0.00 0.97 0.76 80 1007.8
20260508100546 16 291 11.3 20.9 0.00 0.97 0.76 80 1007.6
20260508100034 16 272 11.3 20.9 0.00 0.97 0.76 80 1007.6
20260508095531 16 256 9.7 25.7 0.00 0.97 0.76 80 1007.4
20260508095022 16 283 8.0 25.7 0.00 0.97 0.76 80 1007.3
20260508094515 16 41 4.8 17.7 0.00 0.97 0.76 80 1007.2
20260508094217 16 262 3.2 16.1 0.00 0.97 0.76 81 1006.9
20260508093427 16 353 3.2 14.5 0.00 0.97 0.76 81 1006.8
20260508093419 16 291 4.8 14.5 0.00 0.97 0.76 81 1006.7
20260508092648 16 8 3.2 11.3 0.00 0.97 0.76 82 1006.7
20260508091916 16 262 6.4 25.7 0.00 0.97 0.76 82 1006.7
20260508091416 16 332 8.0 25.7 0.00 0.97 0.76 81 1006.7
20260508090917 16 297 9.7 29.0 0.00 0.97 0.76 82 1006.6
20260508090401 16 304 8.0 29.0 0.00 0.97 0.76 82 1006.5
20260508085840 15 2 6.4 14.5 0.00 0.97 0.76 86 1006.6
20260508085339 15 308 4.8 22.5 0.00 0.97 0.76 88 1006.4
20260508085101 15 354 6.4 20.9 0.00 0.97 0.76 89 1006.2
20260508084332 15 317 9.7 22.5 0.00 0.97 0.76 90 1006.1
20260508083822 15 293 6.4 22.5 0.00 0.97 0.76 92 1006.0
20260508083321 15 251 4.8 16.1 0.00 0.97 0.76 94 1005.8
20260508082821 15 350 4.8 11.3 0.00 0.97 0.76 95 1005.6
20260508082320 15 12 4.8 14.5 0.00 0.97 0.76 95 1005.5
20260508081812 15 321 1.6 14.5 0.00 0.97 0.76 96 1005.6
20260508081258 15 148 0.0 3.2 0.00 0.97 0.76 96 1005.5
20260508080743 15 36 0.0 3.2 0.00 0.97 0.76 96 1005.4
20260508080244 15 251 0.0 3.2 0.00 0.97 0.76 96 1005.5
20260508075744 15 251 0.0 3.2 0.00 0.97 0.76 96 1005.5
20260508075243 15 252 0.0 3.2 0.00 0.97 0.76 96 1005.3
20260508075006 15 252 0.0 3.2 0.00 0.97 0.76 96 1005.1
20260508074235 15 252 0.0 3.2 0.00 0.97 0.76 96 1004.8
20260508073733 15 241 0.0 1.6 0.00 0.97 0.76 96 1004.9
20260508073231 15 241 0.0 3.2 0.00 0.97 0.76 96 1004.7
20260508073003 15 241 1.6 4.8 0.00 0.97 0.76 96 1004.6
20260508072505 15 252 1.6 4.8 0.03 0.97 0.76 95 1004.5
20260508071729 15 58 3.2 4.8 0.05 0.97 0.76 95 1004.2
20260508071231 15 74 3.2 9.7 0.08 0.97 0.76 95 1004.1
20260508070713 14 88 1.6 9.7 0.10 0.97 0.76 95 1004.4
20260508070212 15 45 1.6 4.8 0.15 0.97 0.76 95 1004.4
20260508065707 15 40 1.6 4.8 0.18 0.97 0.76 95 1004.4
20260508065157 14 55 1.6 4.8 0.18 0.97 0.76 94 1004.4
20260508064659 15 87 0.0 4.8 0.20 0.97 0.76 94 1004.3
20260508064130 15 68 1.6 4.8 0.25 0.97 0.76 94 1004.5
20260508063850 15 29 1.6 4.8 0.28 0.97 0.76 94 1004.7
20260508063338 15 31 1.6 4.8 0.36 0.97 0.76 94 1005.1
20260508062558 15 43 1.6 8.0 0.46 0.97 0.76 94 1005.0
20260508062049 15 61 3.2 17.7 0.43 0.94 0.74 93 1004.8
20260508061547 15 40 3.2 17.7 0.41 0.91 0.71 93 1005.4
20260508061047 15 295 8.0 19.3 0.38 0.89 0.69 93 1005.3
20260508060545 15 289 9.7 24.1 0.36 0.86 0.66 92 1005.3
20260508060043 15 267 9.7 24.1 0.30 0.81 0.61 91 1005.2
20260508055544 15 261 9.7 29.0 0.28 0.79 0.58 90 1005.1
20260508055039 16 259 11.3 25.7 0.28 0.79 0.58 89 1004.6
20260508054526 16 251 9.7 22.5 0.23 0.74 0.53 88 1005.0
20260508054017 17 268 9.7 20.9 0.18 0.69 0.51 88 1004.8
20260508053454 18 270 8.0 32.2 0.15 0.66 0.46 89 1004.4
20260508052954 19 262 4.8 32.2 0.08 0.58 0.38 93 1004.9
20260508052455 20 206 3.2 9.7 0.03 0.51 0.30 93 1004.2
20260508051955 20 291 3.2 9.7 0.28 0.51 0.30 93 1004.0
20260508051446 20 245 1.6 4.8 0.28 0.51 0.30 92 1003.4
20260508050940 20 233 1.6 6.4 0.28 0.51 0.30 92 1003.5
20260508050652 20 216 1.6 6.4 0.28 0.51 0.30 91 1003.6
20260508045919 20 263 3.2 6.4 0.28 0.51 0.30 91 1003.4
20260508045410 20 266 3.2 6.4 0.28 0.51 0.30 90 1003.1
20260508044911 20 233 1.6 6.4 0.28 0.51 0.30 89 1002.8
20260508044410 20 260 1.6 12.9 0.28 0.51 0.30 88 1002.8
20260508043857 21 335 3.2 12.9 0.28 0.51 0.30 88 1002.8
20260508043332 21 322 6.4 17.7 0.28 0.51 0.30 86 1002.5
20260508042827 21 332 6.4 17.7 0.28 0.51 0.30 85 1002.5
20260508042315 21 346 6.4 16.1 0.25 0.46 0.28 84 1002.4
20260508041811 21 328 8.0 16.1 0.03 0.23 0.03 81 1002.5
20260508041311 21 312 8.0 16.1 0.03 0.23 0.03 81 1002.2
20260508040801 21 345 8.0 17.7 0.03 0.23 0.03 82 1001.9
20260508040257 21 307 6.4 17.7 0.03 0.23 0.03 82 1001.7
20260508035757 21 332 6.4 16.1 0.03 0.23 0.03 83 1001.7
20260508035255 21 316 4.8 16.1 0.03 0.23 0.03 83 1001.7
20260508034743 21 348 3.2 11.3 0.03 0.23 0.03 83 1001.8
20260508034216 21 352 4.8 11.3 0.03 0.23 0.03 84 1001.9
20260508033936 21 274 6.4 14.5 0.03 0.23 0.03 84 1002.2
20260508033436 21 0 6.4 14.5 0.03 0.23 0.03 83 1002.3
20260508032704 21 22 8.0 24.1 0.03 0.23 0.03 83 1002.5
20260508032202 21 14 9.7 24.1 0.00 0.20 0.00 83 1002.8
20260508031702 21 351 9.7 29.0 0.03 0.20 0.00 83 1002.8
20260508031433 20 353 8.0 29.0 0.03 0.20 0.00 83 1002.9
20260508030937 20 345 6.4 19.3 0.05 0.20 0.00 85 1003.0
20260508030205 20 41 8.0 20.9 0.08 0.20 0.00 84 1003.0
20260508025932 20 353 8.0 20.9 0.20 0.20 0.20 84 1002.9
20260508025413 20 347 6.4 17.7 0.20 0.20 0.20 85 1003.0
20260508024605 20 37 6.4 12.9 0.20 0.20 0.20 85 1003.0
20260508024335 20 339 6.4 19.3 0.20 0.20 0.20 85 1003.0
20260508023558 20 14 6.4 19.3 0.20 0.20 0.20 85 1003.2
20260508023045 20 8 6.4 14.5 0.20 0.20 0.20 85 1003.4
20260508022759 21 31 6.4 25.7 0.20 0.20 0.20 84 1003.5
20260508022029 21 345 9.7 25.7 0.20 0.20 0.20 83 1003.4
20260508021527 21 20 9.7 33.8 0.18 0.18 0.18 81 1003.6
20260508021027 22 322 9.7 38.6 0.15 0.15 0.15 79 1003.9
20260508020738 23 1 16.1 38.6 0.15 0.15 0.15 76 1004.0
20260508020004 24 253 20.9 48.3 0.08 0.08 0.08 71 1004.1
20260508015501 27 245 17.7 48.3 0.00 0.00 0.00 59 1004.2
20260508015203 28 275 14.5 33.8 0.00 0.00 0.00 54 1003.8
20260508014428 28 35 14.5 41.8 0.00 0.00 0.00 55 1001.7
20260508013929 28 359 16.1 41.8 0.00 0.00 0.00 55 1000.8
20260508013357 28 346 14.5 33.8 0.00 0.00 0.00 55 1000.4
20260508012852 28 356 12.9 33.8 0.00 0.00 0.00 55 1000.1
20260508012349 28 343 16.1 35.4 0.00 0.00 0.00 55 1000.1
20260508012053 29 10 16.1 35.4 0.00 0.00 0.00 54 1000.2
20260508011545 29 6 14.5 30.6 0.00 0.00 0.00 54 1000.2
20260508010810 29 338 14.5 30.6 0.00 0.00 0.00 54 1000.2
20260508010306 29 19 14.5 30.6 0.00 0.00 0.00 54 1000.2
20260508005737 29 332 16.1 32.2 0.00 0.00 0.00 54 1000.1
20260508005236 29 341 14.5 32.2 0.00 0.00 0.00 54 1000.1
20260508004956 28 337 14.5 30.6 0.00 0.00 0.00 54 1000.1
20260508004459 28 4 12.9 30.6 0.00 0.00 0.00 54 999.9
20260508003645 28 334 12.9 30.6 0.00 0.00 0.00 54 999.8
20260508003142 29 6 16.1 46.7 0.00 0.00 0.00 54 999.8
20260508002845 29 24 16.1 46.7 0.00 0.00 0.00 53 999.9
20260508002107 29 355 14.5 35.4 0.00 0.00 0.00 54 999.7
20260508001605 29 341 16.1 32.2 0.00 0.00 0.00 53 999.7
20260508001323 29 45 17.7 32.2 0.00 0.00 0.00 53 999.8
20260508000554 29 356 17.7 37.0 0.00 0.00 0.00 53 999.7
20260508000026 29 344 16.1 35.4 0.00 0.00 0.00 53 1000.0
20260507235523 29 12 17.7 37.0 0.00 0.00 0.00 52 999.9
20260507235013 29 326 19.3 37.0 0.00 0.00 0.00 52 999.9
20260507234716 29 339 14.5 35.4 0.00 0.00 0.00 53 999.6
20260507233944 29 16 11.3 25.7 0.00 0.00 0.00 53 999.7
20260507233425 29 19 11.3 24.1 0.00 0.00 0.00 53 999.7
20260507232923 29 333 11.3 24.1 0.00 0.00 0.00 54 999.8
20260507232430 29 0 12.9 33.8 0.00 0.00 0.00 54 999.7
20260507232423 29 30 11.3 24.1 0.00 0.00 0.00 54 999.8
20260507231426 28 308 11.3 33.8 0.00 0.00 0.00 54 999.7
20260507230906 28 334 8.0 22.5 0.00 0.00 0.00 56 999.9
20260507230405 28 318 4.8 22.5 0.00 0.00 0.00 56 999.8
20260507225907 28 336 4.8 19.3 0.00 0.00 0.00 56 999.8
20260507225342 28 328 6.4 19.3 0.00 0.00 0.00 56 999.8
20260507224837 28 308 3.2 14.5 0.00 0.00 0.00 57 999.9
20260507224537 28 2 3.2 11.3 0.00 0.00 0.00 56 999.9
20260507223801 28 55 6.4 19.3 0.00 0.00 0.00 56 1000.0
20260507223258 28 16 6.4 19.3 0.00 0.00 0.00 56 1000.0
20260507222751 28 0 4.8 24.1 0.00 0.00 0.00 56 1000.0
20260507222243 28 348 4.8 24.1 0.00 0.00 0.00 56 1000.2
20260507221715 28 116 6.4 16.1 0.00 0.00 0.00 57 1000.3
20260507221212 28 308 6.4 16.1 0.00 0.00 0.00 56 1000.2
20260507220645 28 332 6.4 16.1 0.00 0.00 0.00 56 1000.4
20260507220143 28 72 3.2 11.3 0.00 0.00 0.00 56 1000.4
20260507215914 28 1 3.2 12.9 0.00 0.00 0.00 56 1000.4
20260507215141 28 354 4.8 12.9 0.00 0.00 0.00 56 1000.5
20260507214641 28 14 4.8 16.1 0.00 0.00 0.00 56 1000.7
20260507214139 28 35 4.8 16.1 0.00 0.00 0.00 55 1000.5
20260507213611 29 355 6.4 16.1 0.00 0.00 0.00 55 1000.6
20260507213338 29 65 6.4 14.5 0.00 0.00 0.00 55 1000.5
20260507212551 29 341 6.4 19.3 0.00 0.00 0.00 54 1000.6
20260507212050 29 35 4.8 19.3 0.00 0.00 0.00 54 1000.8
20260507211550 29 19 3.2 9.7 0.00 0.00 0.00 54 1000.8
20260507211025 30 20 3.2 9.7 0.00 0.00 0.00 54 1000.8
20260507210458 30 12 6.4 19.3 0.00 0.00 0.00 54 1000.8
20260507205949 30 330 6.4 19.3 0.00 0.00 0.00 52 1000.8
20260507205447 30 347 6.4 24.1 0.00 0.00 0.00 52 1000.7
20260507204935 30 20 8.0 24.1 0.00 0.00 0.00 52 1000.8
20260507204436 30 0 8.0 19.3 0.00 0.00 0.00 52 1000.8
20260507204140 30 11 8.0 22.5 0.00 0.00 0.00 51 1000.8
20260507203614 30 43 8.0 22.5 0.00 0.00 0.00 51 1000.7
20260507202840 30 285 8.0 22.5 0.00 0.00 0.00 51 1000.7
20260507202549 30 44 8.0 19.3 0.00 0.00 0.00 50 1000.6
20260507201750 31 0 11.3 30.6 0.00 0.00 0.00 50 1000.6
20260507201518 31 27 11.3 30.6 0.00 0.00 0.00 51 1000.7
20260507200737 31 314 9.7 20.9 0.00 0.00 0.00 50 1000.5
20260507200448 31 321 12.9 37.0 0.00 0.00 0.00 50 1000.5
20260507200209 31 4 9.7 17.7 0.00 0.00 0.00 50 1000.5
20260507195157 31 12 12.9 37.0 0.00 0.00 0.00 50 1000.3
20260507194646 31 337 9.7 25.7 0.00 0.00 0.00 51 1000.4
20260507194143 30 37 8.0 20.9 0.00 0.00 0.00 53 1000.4
20260507193624 30 95 4.8 17.7 0.00 0.00 0.00 55 1000.4
20260507193325 30 320 4.8 11.3 0.00 0.00 0.00 55 1000.3
20260507192526 30 330 4.8 14.5 0.00 0.00 0.00 54 1000.4
20260507192012 30 0 6.4 14.5 0.00 0.00 0.00 55 1000.4
20260507191512 30 322 6.4 19.3 0.00 0.00 0.00 53 1000.5
20260507191011 31 348 4.8 19.3 0.00 0.00 0.00 53 1000.6
20260507190510 31 27 3.2 11.3 0.00 0.00 0.00 55 1000.7